DW9249 Weather Reports


time (UTC)temp
C
wind
direction
speed
KPH
gust
KPH
rain 1hr
cm
rain 24hr
cm
rain mn
cm
humidity
%
barometer
mb
20260506201335 17 194 1.6 12.9 0.00 0.15 0.15 89 997.8
20260506200835 17 203 1.6 9.7 0.00 0.15 0.15 90 997.9
20260506200341 17 202 1.6 9.7 0.00 0.15 0.15 90 997.9
20260506195235 17 210 1.6 9.7 0.00 0.15 0.15 90 998.1
20260506194740 17 202 1.6 11.3 0.00 0.15 0.15 90 998.2
20260506194235 17 204 1.6 11.3 0.00 0.15 0.15 90 998.2
20260506193111 17 187 3.2 11.3 0.00 0.15 0.15 90 998.4
20260506192612 17 165 4.8 14.5 0.00 0.15 0.15 89 998.5
20260506192119 17 219 3.2 14.5 0.00 0.15 0.15 89 998.6
20260506191626 17 242 3.2 14.5 0.00 0.15 0.15 89 998.6
20260506191124 17 168 3.2 14.5 0.00 0.15 0.15 88 998.6
20260506190610 17 183 1.6 9.7 0.00 0.15 0.15 88 998.6
20260506190118 17 215 0.0 3.2 0.00 0.15 0.15 89 998.6
20260506184942 17 196 0.0 6.4 0.00 0.15 0.15 88 998.6
20260506183758 17 238 0.0 6.4 0.00 0.15 0.15 88 998.7
20260506183254 17 215 1.6 0.0 0.00 0.15 0.15 88 998.7
20260506182805 17 223 1.6 8.0 0.00 0.15 0.15 87 998.7
20260506182309 17 200 0.0 8.0 0.00 0.15 0.15 87 998.7
20260506181756 17 244 0.0 8.0 0.00 0.15 0.15 87 998.7
20260506181254 17 190 0.0 4.8 0.00 0.15 0.15 86 998.7
20260506180748 17 188 0.0 8.0 0.00 0.15 0.15 86 998.8
20260506180234 18 190 0.0 0.0 0.00 0.15 0.15 86 998.9
20260506175722 17 190 0.0 8.0 0.00 0.15 0.15 86 999.0
20260506175218 18 184 0.0 0.0 0.00 0.15 0.15 86 999.2
20260506174718 18 182 0.0 0.0 0.00 0.15 0.15 86 999.2
20260506174212 18 161 0.0 12.9 0.00 0.15 0.15 85 999.1
20260506173706 18 215 1.6 9.7 0.00 0.15 0.15 85 999.1
20260506173157 18 182 0.0 9.7 0.00 0.15 0.15 86 999.2
20260506172020 18 173 0.0 9.7 0.15 0.15 0.15 87 999.1
20260506170903 17 163 0.0 0.0 0.00 0.10 0.13 87 999.0
20260506170346 17 161 0.0 12.9 0.00 0.10 0.10 86 999.0
20260506165851 17 197 0.0 1.6 0.00 0.10 0.10 86 999.0
20260506165354 18 197 0.0 1.6 0.00 0.10 0.10 86 999.3
20260506164233 18 208 0.0 1.6 0.13 0.10 0.10 85 999.7
20260506163121 18 208 0.0 0.0 0.15 0.08 0.10 84 1000.1
20260506162626 18 209 0.0 0.0 0.20 0.08 0.08 83 1000.3
20260506162120 18 192 0.0 0.0 0.20 0.05 0.08 83 1000.2
20260506161610 18 180 0.0 4.8 0.20 0.05 0.05 82 1000.3
20260506161104 18 202 0.0 0.0 0.00 0.03 0.03 80 1000.3
20260506160606 18 202 0.0 0.0 0.00 0.03 0.03 79 1000.4
20260506160109 18 204 1.6 9.7 0.00 0.00 0.00 76 1000.5
20260506155556 19 228 3.2 14.5 0.00 0.00 0.00 75 1000.4
20260506155052 19 182 3.2 14.5 0.00 0.00 0.00 74 1000.5
20260506154537 19 209 4.8 17.7 0.00 0.00 0.00 72 1000.4
20260506154037 20 160 6.4 17.7 0.00 0.00 0.00 70 1000.4
20260506153538 20 153 6.4 17.7 0.00 0.00 0.00 70 1000.4
20260506153027 20 209 6.4 17.7 0.00 0.00 0.00 69 1000.5
20260506152523 20 194 3.2 14.5 0.00 0.00 0.00 69 1000.4
20260506151404 20 212 3.2 20.9 0.00 0.00 0.00 68 1000.3
20260506150909 20 171 3.2 20.9 0.00 0.00 0.00 68 1000.2
20260506150354 20 180 4.8 20.9 0.00 0.00 0.00 67 1000.3
20260506145853 21 146 4.8 20.9 0.00 0.00 0.00 67 1000.4
20260506144708 21 188 8.0 20.9 0.00 0.00 0.00 65 1000.5
20260506143529 21 176 4.8 16.1 0.00 0.00 0.00 65 1000.4
20260506143035 21 201 4.8 16.1 0.00 0.00 0.00 66 1000.6
20260506142521 21 167 4.8 14.5 0.00 0.00 0.00 66 1000.6
20260506142006 20 190 3.2 14.5 0.00 0.00 0.00 67 1000.5
20260506141503 20 192 4.8 14.5 0.00 0.00 0.00 67 1000.4
20260506140343 20 311 3.2 14.5 0.00 0.00 0.00 67 1000.5
20260506135840 20 169 3.2 14.5 0.00 0.00 0.00 67 1000.4
20260506135328 20 185 3.2 14.5 0.00 0.00 0.00 67 1000.6
20260506134833 20 148 3.2 12.9 0.00 0.00 0.00 67 1000.5
20260506133707 20 158 3.2 12.9 0.00 0.00 0.00 67 1000.7
20260506133151 20 226 4.8 17.7 0.00 0.00 0.00 67 1000.7
20260506132633 20 182 6.4 17.7 0.00 0.00 0.00 67 1000.7
20260506132140 20 220 4.8 17.7 0.00 0.00 0.00 68 1000.8
20260506131639 20 223 6.4 17.7 0.00 0.00 0.00 68 1000.7
20260506131136 20 192 4.8 16.1 0.00 0.00 0.00 68 1000.7
20260506130645 20 157 3.2 19.3 0.00 0.00 0.00 69 1000.8
20260506130152 20 185 3.2 19.3 0.00 0.00 0.00 69 1000.8
20260506125638 20 180 3.2 19.3 0.00 0.00 0.00 68 1000.6
20260506125140 20 161 4.8 19.3 0.00 0.00 0.00 69 1000.4
20260506124626 20 210 4.8 16.1 0.00 0.00 0.00 69 1000.5
20260506124117 20 286 3.2 12.9 0.00 0.00 0.00 69 1000.3
20260506123614 20 153 3.2 9.7 0.00 0.00 0.00 70 1000.2
20260506123059 19 190 3.2 16.1 0.00 0.00 0.00 70 1000.3
20260506122600 19 173 1.6 16.1 0.00 0.00 0.00 71 1000.4
20260506122057 19 154 1.6 16.1 0.00 0.00 0.00 72 1000.4
20260506121541 19 182 3.2 16.1 0.00 0.00 0.00 72 1000.6
20260506121033 19 159 3.2 14.5 0.00 0.00 0.00 72 1000.6
20260506115858 19 329 3.2 14.5 0.00 0.00 0.00 72 1000.8
20260506115348 19 264 4.8 14.5 0.00 0.00 0.00 72 1000.8
20260506114852 19 242 4.8 14.5 0.00 0.00 0.00 72 1001.0
20260506114359 19 165 4.8 11.3 0.00 0.00 0.00 72 1001.0
20260506113904 19 167 3.2 11.3 0.00 0.00 0.00 72 1000.9
20260506112740 18 241 3.2 0.0 0.00 0.00 0.00 74 1000.8
20260506112241 18 254 3.2 16.1 0.00 0.00 0.00 74 1000.8
20260506111722 18 171 1.6 16.1 0.00 0.00 0.00 74 1000.7
20260506111231 18 201 3.2 3.2 0.00 0.00 0.00 74 1000.7
20260506110723 18 208 6.4 17.7 0.00 0.00 0.00 74 1000.7
20260506110208 18 206 3.2 17.7 0.00 0.00 0.00 74 1000.6
20260506105718 18 177 1.6 14.5 0.00 0.00 0.00 75 1000.5
20260506105219 18 159 3.2 14.5 0.00 0.00 0.00 75 1000.6
20260506104702 18 172 1.6 6.4 0.00 0.00 0.00 75 1000.5
20260506104153 18 226 1.6 9.7 0.00 0.00 0.00 75 1000.6
20260506103658 18 198 1.6 9.7 0.00 0.00 0.00 75 1000.5
20260506103158 18 206 1.6 14.5 0.00 0.00 0.00 75 1000.6
20260506102653 18 210 3.2 14.5 0.00 0.00 0.00 75 1000.6
20260506102148 18 177 4.8 14.5 0.00 0.00 0.00 75 1000.6
20260506101650 18 239 3.2 14.5 0.00 0.00 0.00 75 1000.5
20260506101153 18 194 3.2 14.5 0.00 0.00 0.00 75 1000.6
20260506100639 18 223 1.6 14.5 0.00 0.00 0.00 75 1000.4
20260506095528 18 204 1.6 8.0 0.00 0.00 0.00 75 1000.3
20260506095020 18 210 0.0 8.0 0.00 0.00 0.00 75 1000.3
20260506094526 18 252 0.0 8.0 0.00 0.00 0.00 75 1000.3
20260506094017 18 189 1.6 0.0 0.00 0.00 0.00 75 1000.3
20260506093500 18 227 3.2 12.9 0.00 0.00 0.00 75 1000.4
20260506093008 18 182 1.6 12.9 0.00 0.00 0.00 75 1000.4
20260506092503 18 203 0.0 6.4 0.00 0.00 0.00 75 1000.4
20260506092004 18 173 1.6 9.7 0.00 0.00 0.00 75 1000.4
20260506091500 18 194 1.6 9.7 0.00 0.00 0.00 75 1000.5
20260506090941 18 213 1.6 0.0 0.00 0.00 0.00 75 1000.5
20260506090441 18 192 1.6 11.3 0.00 0.00 0.00 75 1000.5
20260506085938 18 178 1.6 9.7 0.00 0.00 0.00 75 1000.5
20260506085427 18 152 0.0 9.7 0.00 0.00 0.00 75 1000.5
20260506084933 18 184 0.0 3.2 0.00 0.00 0.00 75 1000.6
20260506083808 18 192 0.0 6.4 0.00 0.00 0.00 75 1000.7
20260506083303 18 200 0.0 8.0 0.00 0.00 0.00 74 1000.6
20260506082749 18 91 0.0 6.4 0.00 0.00 0.00 74 1000.6
20260506082252 18 56 0.0 4.8 0.00 0.00 0.00 74 1000.7
20260506081759 18 186 0.0 0.0 0.00 0.00 0.00 74 1000.7
20260506080646 18 205 1.6 11.3 0.00 0.00 0.00 73 1000.8
20260506080154 18 207 0.0 9.7 0.00 0.00 0.00 73 1000.7
20260506073113 19 190 0.0 9.7 0.00 0.00 0.00 72 1000.7
20260506072621 19 225 0.0 9.7 0.00 0.00 0.00 72 1000.7
20260506071446 19 198 0.0 8.0 0.00 0.00 0.00 71 1000.7
20260506070952 19 194 0.0 9.7 0.00 0.00 0.00 71 1000.8
20260506070502 19 201 1.6 9.7 0.00 0.00 0.00 70 1000.8
20260506061425 20 132 1.6 12.9 0.00 0.00 0.00 67 1001.0
20260506060919 20 178 1.6 12.9 0.00 0.00 0.00 67 1001.0
20260506060423 20 234 1.6 12.9 0.00 0.00 0.00 67 1001.0
20260506051004 20 197 1.6 9.7 0.00 0.00 0.00 64 1001.3
20260506050453 20 168 0.0 8.0 0.00 0.00 0.00 64 1001.4
20260506044923 20 170 0.0 4.8 0.00 0.00 0.00 63 1001.5
20260506043738 20 215 0.0 12.9 0.00 0.00 0.00 62 1001.5
20260506043222 20 234 0.0 11.3 0.00 0.00 0.00 62 1001.5
20260506042721 20 224 1.6 11.3 0.00 0.00 0.00 62 1001.5
20260506041559 20 194 3.2 11.3 0.00 0.00 0.00 61 1001.5
20260506041050 20 190 1.6 11.3 0.00 0.00 0.00 61 1001.4
20260506040554 20 287 3.2 11.3 0.00 0.00 0.00 61 1001.4
20260506040047 20 190 1.6 8.0 0.00 0.00 0.00 61 1001.5
20260506034932 20 206 0.0 8.0 0.00 0.00 0.00 60 1001.4
20260506034440 20 156 0.0 8.0 0.00 0.00 0.00 60 1001.4
20260506033934 20 261 0.0 11.3 0.00 0.00 0.00 60 1001.5
20260506033434 20 178 0.0 9.7 0.00 0.00 0.00 60 1001.4
20260506032925 20 196 1.6 9.7 0.00 0.00 0.00 60 1001.5
20260506032425 20 219 0.0 3.2 0.00 0.00 0.00 60 1001.5
20260506031917 20 151 0.0 3.2 0.00 0.00 0.00 60 1001.5
20260506031424 20 227 0.0 8.0 0.00 0.00 0.00 59 1001.5
20260506030919 21 166 0.0 0.0 0.00 0.00 0.00 59 1001.5
20260506030424 21 166 0.0 8.0 0.00 0.00 0.00 59 1001.6
20260506025920 21 198 0.0 0.0 0.00 0.00 0.00 58 1001.5
20260506025414 21 198 0.0 11.3 0.00 0.00 0.00 58 1001.4
20260506024902 21 90 0.0 6.4 0.00 0.00 0.00 58 1001.4
20260506024406 21 87 0.0 0.0 0.00 0.00 0.00 57 1001.3
20260506023855 21 87 0.0 0.0 0.00 0.00 0.00 56 1001.4
20260506023400 22 87 0.0 9.7 0.00 0.00 0.00 56 1001.4
20260506022845 22 161 1.6 9.7 0.00 0.00 0.00 55 1001.3
20260506022344 22 157 1.6 9.7 0.00 0.00 0.00 55 1001.4
20260506021834 22 151 1.6 8.0 0.00 0.00 0.00 54 1001.3
20260506020656 22 199 1.6 22.5 0.00 0.00 0.00 53 1001.2
20260506020149 22 163 3.2 22.5 0.00 0.00 0.00 52 1001.2
20260506015026 22 133 3.2 19.3 0.00 0.00 0.00 51 1001.2
20260506013247 23 152 4.8 16.1 0.00 0.00 0.00 49 1001.1
20260506012749 23 162 4.8 16.1 0.00 0.00 0.00 48 1001.0
20260506012237 23 159 3.2 16.1 0.00 0.00 0.00 46 1001.0
20260506011746 23 171 4.8 16.1 0.00 0.00 0.00 46 1000.8
20260506010612 24 142 3.2 16.1 0.00 0.00 0.00 44 1000.6
20260506010059 24 140 3.2 16.1 0.00 0.00 0.00 43 1000.6
20260506005601 24 182 0.0 9.7 0.00 0.00 0.00 43 1000.5
20260506005105 24 206 1.6 8.0 0.00 0.00 0.00 42 1000.4
20260506004602 25 165 1.6 8.0 0.00 0.00 0.00 42 1000.3
20260506004053 25 170 0.0 6.4 0.00 0.00 0.00 41 1000.2
20260506003537 25 167 0.0 0.0 0.00 0.00 0.00 41 1000.2
20260506003026 25 169 0.0 16.1 0.00 0.00 0.00 41 1000.2
20260506002511 25 243 1.6 16.1 0.00 0.00 0.00 41 1000.1
20260506001342 25 178 4.8 16.1 0.00 0.00 0.00 39 1000.0
20260506000850 25 171 1.6 14.5 0.00 0.00 0.00 39 999.9
20260506000342 25 223 3.2 14.5 0.00 0.00 0.00 39 999.9
20260505235840 25 200 3.2 14.5 0.00 0.00 0.00 39 999.9
20260505235345 25 117 1.6 12.9 0.00 0.00 0.00 38 999.9
20260505234845 26 186 1.6 12.9 0.00 0.00 0.00 37 999.8
20260505234337 26 247 3.2 22.5 0.00 0.00 0.00 36 999.7
20260505233221 26 184 4.8 22.5 0.00 0.00 0.00 35 999.6
20260505232055 26 150 3.2 12.9 0.00 0.00 0.00 34 999.5
20260505230949 26 171 1.6 12.9 0.00 0.00 0.00 33 999.3
20260505230458 26 207 1.6 12.9 0.00 0.00 0.00 34 999.2
20260505225953 26 231 3.2 12.9 0.00 0.00 0.00 33 999.2
20260505225437 26 165 1.6 12.9 0.00 0.00 0.00 33 999.1
20260505224936 26 154 3.2 12.9 0.00 0.00 0.00 33 999.0
20260505223213 27 215 6.4 24.1 0.00 0.00 0.00 31 999.0
20260505222030 27 195 6.4 24.1 0.00 0.00 0.00 30 999.1
20260505221517 27 178 6.4 17.7 0.00 0.00 0.00 29 999.1
20260505220410 27 199 3.2 14.5 0.00 0.00 0.00 29 999.1
20260505215902 27 243 3.2 16.1 0.00 0.00 0.00 29 998.9
20260505215352 27 192 4.8 16.1 0.00 0.00 0.00 30 998.9
20260505214835 27 219 4.8 25.7 0.00 0.00 0.00 29 998.7
20260505213728 27 128 8.0 25.7 0.00 0.00 0.00 29 998.5
20260505213217 28 188 6.4 25.7 0.00 0.00 0.00 29 998.6
20260505212710 28 171 8.0 24.1 0.00 0.00 0.00 27 998.5
20260505212214 28 199 8.0 33.8 0.00 0.00 0.00 28 998.7
20260505211700 28 269 6.4 33.8 0.00 0.00 0.00 29 998.4
20260505211200 28 145 8.0 33.8 0.00 0.00 0.00 28 998.5
20260505210649 28 167 8.0 33.8 0.00 0.00 0.00 30 998.5
20260505210135 28 157 6.4 24.1 0.00 0.00 0.00 30 998.4
20260505205620 28 208 8.0 24.1 0.00 0.00 0.00 30 998.5
20260505205119 28 139 11.3 24.1 0.00 0.00 0.00 30 998.4
20260505204620 28 237 11.3 30.6 0.00 0.00 0.00 30 998.5
20260505204106 28 143 9.7 30.6 0.00 0.00 0.00 32 998.6
20260505203601 28 212 9.7 30.6 0.00 0.00 0.00 31 998.4
20260505203053 28 242 9.7 30.6 0.00 0.00 0.00 30 998.5